AirNav   TITAN Aviation Fuels
 
 981 users online  

WN29 Blue Ribbon Airport
Sequim, Washington, USA

GOING TO SEQUIM?


FAA INFORMATION EFFECTIVE 19 MAY 2022

Location

FAA Identifier: WN29
Lat/Long: 48-07-48.9000N 123-12-19.8750W
48-07.815000N 123-12.331250W
48.1302500,-123.2055208
(estimated)
Elevation: 103 ft. / 31 m (estimated)
Variation: 21E (1985)
From city: 5 miles NW of SEQUIM, WA
Time zone: UTC -7 (UTC -8 during Standard Time)
Zip code: 98382

Airport Operations

Airport use: Private use. Permission required prior to landing
Activation date: 01/1983
Control tower: no
ARTCC: SEATTLE CENTER
FSS: SEATTLE FLIGHT SERVICE STATION
Attendance: UNATNDD
Wind indicator: yes
Segmented circle: no

Airport Communications

WX AWOS-3P at NOW (8 nm W): 118.325 (360-457-7529)
WX ASOS at CLM (12 nm W): 135.175 (360-457-1070)
WX AWOS-3P at 0S9 (16 nm E): 119.025 (360-379-1199)

Nearby radio navigation aids

VOR radial/distance  VOR name  Freq  Var
CVVr231/20.4PENN COVE VOR/DME117.2019E
YYJr146/37.5VICTORIA VOR/DME113.7017E
PAEr269/39.3PAINE VOR/DME110.6020E

 
NDB name  Hdg/Dist  Freq  Var  ID
EDIZ HOOK077/7.933817ENOW -. --- .--
FRIDAY HARBOR181/24.028417EFHR ..-. .... .-.
SKAGIT/BAY VIEW221/37.424016EBVS -... ...- ...

Airport Services

Runway Information

Runway 7/25

Dimensions: 1961 x 60 ft. / 598 x 18 m
Surface: turf, in good condition
RUNWAY 7  RUNWAY 25
Latitude: 48-07.815333N48-07.814667N
Longitude: 123-12.572167W123-12.090333W
Elevation: 103.0 ft.103.0 ft.
Traffic pattern: leftleft
Touchdown point: yes, no lightsyes, no lights

Airport Ownership and Management from official FAA records

Ownership: Privately-owned
Owner: BLUE RIBBON FARMS
PO BOX 3141
SEQUIM, WA 98382
Phone 3017882771
PROPERTY OWNERS ASSN., INC.
Manager: MARK CHENEY
118 GREYWOLF ROAD
SEQUIM, WA 98382
Phone 3017882771

Airport Operational Statistics

Aircraft based on the field: 11
Single engine airplanes: 10
Multi engine airplanes: 1
    

Additional Remarks

WILDLIFE (DEER) ON AND IN VCNTY OF ARPT, EAGLES AND SEAGULLS ALSO ON AND IN VCNTY OF ARPT.
FOR CD CTC SEATTLE ARTCC AT 253-351-3694.

Instrument Procedures

There are no published instrument procedures at WN29.

Some nearby airports with instrument procedures:

KNOW - Port Angeles Coast Guard Air Station Airport (8 nm W)
KCLM - William R Fairchild International Airport (12 nm W)
0S9 - Jefferson County International Airport (16 nm E)
KOKH - AJ Eisenberg Airport (22 nm E)
KFHR - Friday Harbor Airport (25 nm N)
 
Loc | Ops | Rwys | IFR | FBO | Links
Com | Nav | Svcs | Stats | Notes
Area around WN29 (Blue Ribbon Airport)
 
Road maps at: MapQuest Bing Google
 
Aerial photo
WARNING: Photo may not be current or correct
Aerial photo of WN29 (Blue Ribbon Airport)
Photo by Dave Woodcock, Greywolf Aerial Photography www.greywolfphotography.com
Taken in June 2005

Do you have a better or more recent aerial photo of Blue Ribbon Airport that you would like to share? If so, please send us your photo.

 
Sectional chart

 
Airport distance calculator
Flying to Blue Ribbon Airport? Find the distance to fly.

From to WN29

Sunrise and sunset
Times for 19-May-2022
 Local
(UTC-7)
 Zulu
(UTC)
Morning civil twilight04:5211:52
Sunrise05:3012:30
Sunset20:4903:49
Evening civil twilight21:2704:27

Current date and time
Zulu (UTC)  20-May-2022 01:15:25
Local (UTC-7)  19-May-2022 18:15:25
 
METAR
KCLM 
12nm W 
200053Z AUTO 31011G23KT 10SM CLR 11/06 A3025 RMK AO2 PK WND 31031/0026 SLP246 T01110056
CWQK 
15nm NW 
200000Z AUTO 29028KT 10/03 RMK AO1 PK WND 29031/2355 SLP231 T00950030
KNOW 
16nm W 
200055Z AUTO 29016G22KT 10SM CLR 12/07 A3024 RMK AO2 T01160068
K0S9 
16nm E 
200055Z AUTO 31009G16KT 280V340 10SM CLR 12/06 A3023 RMK AO2
CWLM 
18nm N 
200000Z AUTO 25013KT 13/02 RMK AO1 PK WND 25021/2313 SLP232 T01310019 53001
CYWH 
18nm N 
200000Z 25013KT 15SM SCT040 13/03 A3022 RMK SC4 SLP235
CWPF 
19nm NW 
200045Z AUTO 24011KT 13/01 RMK AO1 SLP234 T01280006 53004
CWYJ 
19nm N 
200000Z AUTO 32004KT 13/04 RMK AO1 3003 SLP235 T01290040 50003
TAF
KCLM 
12nm W 
191739Z 1918/2018 31012G20KT P6SM BKN045 FM200500 28007KT P6SM SCT060 FM201000 26005KT P6SM BKN050 FM201600 32005KT P6SM BKN100
CYWH 
18nm N 
192040Z 1921/2004 24012G22KT P6SM FEW030 BKN070 FM200200 24012KT P6SM SCT040 RMK NXT FCST BY 201400Z
NOTAMs
Click for the latest NOTAMs
NOTAMs are issued by the DoD/FAA and will open in a separate window not controlled by AirNav.

 

 
 

Would you like to see your business listed on this page?

 If your business provides an interesting product or service to pilots, flight crews, aircraft, or users of the Blue Ribbon Airport, you should consider listing it here.  To start the listing process, click on the button below
 
Add a business
 

Other Pages about Blue Ribbon Airport

www.blueribbonfarmsassoc.com
 
Update a link
 
Copyright © AirNav, LLC. All rights reserved. Privacy Policy  Contact